H1 CPF 2 NER 2021 12 9 9 343 01 glonass142 H2 2001801 9142 45358 2021 12 9 0 0 0 2021 12 12 23 45 0 900 1 1 0 0 0 1 H9 10 0 59557 0.00000 0 11787081.096 -898833.879 22628409.778 10 0 59557 900.00000 0 10799837.938 1736944.896 23066962.655 10 0 59557 1800.00000 0 10002030.949 4463825.649 23058670.800 10 0 59557 2700.00000 0 9413219.887 7214446.334 22603623.842 10 0 59557 3600.00000 0 9040806.618 9919289.441 21710543.449 10 0 59557 4500.00000 0 8879814.617 12509336.279 20396623.495 10 0 59557 5400.00000 0 8913202.386 14918710.632 18687208.863 10 0 59557 6300.00000 0 9112698.061 17087203.419 16615317.950 10 0 59557 7200.00000 0 9440120.859 18962574.312 14221016.802 10 0 59557 8100.00000 0 9849134.584 20502535.072 11550655.592 10 0 59557 9000.00000 0 10287360.147 21676332.039 8655980.910 10 0 59557 9900.00000 0 10698758.589 22465861.382 5593140.035 10 0 59557 10800.00000 0 11026184.290 22866269.967 2421595.749 10 0 59557 11700.00000 0 11214000.293 22886016.054 -797027.653 10 0 59557 12600.00000 0 11210644.525 22546386.581 -4000144.557 10 0 59557 13500.00000 0 10971037.257 21880490.912 -7125430.746 10 0 59557 14400.00000 0 10458726.453 20931773.092 -10112044.052 10 0 59557 15300.00000 0 9647678.507 19752105.311 -12901818.203 10 0 59557 16200.00000 0 8523636.724 18399543.219 -15440405.538 10 0 59557 17100.00000 0 7084988.194 16935838.229 -17678345.357 10 0 59557 18000.00000 0 5343100.630 15423812.385 -19572036.057 10 0 59557 18900.00000 0 3322113.320 13924707.146 -21084591.443 10 0 59557 19800.00000 0 1058189.488 12495618.442 -22186564.063 10 0 59557 20700.00000 0 -1401739.565 11187126.544 -22856521.144 10 0 59557 21600.00000 0 -4001686.808 10041220.730 -23081461.964 10 0 59557 22500.00000 0 -6678707.175 9089606.005 -22857068.638 10 0 59557 23400.00000 0 -9365293.239 8352462.709 -22187785.764 10 0 59557 24300.00000 0 -11991969.011 7837710.443 -21086727.731 10 0 59557 25200.00000 0 -14489973.770 7540806.228 -19575415.942 10 0 59557 26100.00000 0 -16793924.039 7445084.151 -17683351.523 10 0 59557 27000.00000 0 -18844342.897 7522620.723 -15447432.307 10 0 59557 27900.00000 0 -20589951.524 7735587.988 -12911225.934 10 0 59557 28800.00000 0 -21989627.858 8038035.835 -10124113.749 10 0 59557 29700.00000 0 -23013951.441 8378026.872 -7140322.717 10 0 59557 30600.00000 0 -23646271.038 8700032.502 -4017864.718 10 0 59557 31500.00000 0 -23883251.683 8947487.947 -817404.474 10 0 59557 32400.00000 0 -23734879.812 9065397.537 2398921.409 10 0 59557 33300.00000 0 -23223927.935 9002879.670 5568710.968 10 0 59557 34200.00000 0 -22384902.805 8715543.760 8630505.268 10 0 59557 35100.00000 0 -21262522.650 8167598.821 11524975.233 10 0 59557 36000.00000 0 -19909788.396 7333604.843 14196064.231 10 0 59557 36900.00000 0 -18385730.437 6199793.361 16592064.760 10 0 59557 37800.00000 0 -16752925.616 4764901.691 18666609.253 10 0 59557 38700.00000 0 -15074888.121 3040485.596 20379556.878 10 0 59557 39600.00000 0 -13413442.817 1050696.801 21697760.278 10 0 59557 40500.00000 0 -11826189.819 -1168466.227 22595698.580 10 0 59557 41400.00000 0 -10364164.966 -3570404.268 23055965.470 10 0 59557 42300.00000 0 -9069792.643 -6099609.703 23069603.644 10 0 59557 43200.00000 0 -7975215.147 -8693736.748 22636279.601 10 0 59557 44100.00000 0 -7101067.325 -11285965.478 21764295.430 10 0 59557 45000.00000 0 -6455746.966 -13807563.354 20470436.919 10 0 59557 45900.00000 0 -6035211.018 -16190539.675 18779660.161 10 0 59557 46800.00000 0 -5823306.166 -18370284.184 16724621.548 10 0 59557 47700.00000 0 -5792620.129 -20288081.097 14345058.956 10 0 59557 48600.00000 0 -5905818.438 -21893394.583 11687034.706 10 0 59557 49500.00000 0 -6117410.942 -23145830.535 8802053.592 10 0 59557 50400.00000 0 -6375874.138 -24016692.415 5746072.071 10 0 59557 51300.00000 0 -6626039.995 -24490065.468 2578416.998 10 0 59557 52200.00000 0 -6811650.265 -24563383.110 -639365.487 10 0 59557 53100.00000 0 -6877967.801 -24247450.748 -3844708.457 10 0 59557 54000.00000 0 -6774333.452 -23565925.285 -6975246.375 10 0 59557 54900.00000 0 -6456559.007 -22554271.526 -9970036.462 10 0 59557 55800.00000 0 -5889053.282 -21258239.081 -12770754.421 10 0 59557 56700.00000 0 -5046589.570 -19731923.814 -15322840.218 10 0 59557 57600.00000 0 -3915637.793 -18035495.706 -17576570.570 10 0 59557 58500.00000 0 -2495203.226 -16232689.225 -19488036.230 10 0 59557 59400.00000 0 -797134.657 -14388162.409 -21020004.364 10 0 59557 60300.00000 0 1154112.587 -12564836.274 -22142648.709 10 0 59557 61200.00000 0 3322250.005 -10821326.921 -22834132.990 10 0 59557 62100.00000 0 5660434.238 -9209578.460 -23081036.257 10 0 59557 63000.00000 0 8112997.505 -7772796.092 -22878611.980 10 0 59557 63900.00000 0 10617558.090 -6543765.805 -22230876.154 10 0 59557 64800.00000 0 13107422.936 -5543630.445 -21150523.073 10 0 59557 65700.00000 0 15514182.062 -4781172.452 -19658670.818 10 0 59557 66600.00000 0 17770386.425 -4252632.049 -17784441.892 10 0 59557 67500.00000 0 19812197.473 -3942066.870 -15564387.611 10 0 59557 68400.00000 0 21581897.890 -3822236.129 -13041767.944 10 0 59557 69300.00000 0 23030158.873 -3855970.312 -10265701.363 10 0 59557 70200.00000 0 24117969.698 -3997966.881 -7290201.815 10 0 59557 71100.00000 0 24818149.659 -4196934.591 -4173122.041 10 0 59557 72000.00000 0 25116380.023 -4397994.545 -975024.474 10 0 59557 72900.00000 0 25011714.056 -4545235.421 2241997.895 10 0 59557 73800.00000 0 24516545.059 -4584314.133 5415527.372 10 0 59557 74700.00000 0 23656035.116 -4464991.581 8484030.440 10 0 59557 75600.00000 0 22467029.798 -4143496.238 11388046.227 10 0 59557 76500.00000 0 20996505.323 -3584615.798 14071331.807 10 0 59557 77400.00000 0 19299613.959 -2763428.915 16481942.626 10 0 59557 78300.00000 0 17437409.794 -1666604.194 18573227.976 10 0 59557 79200.00000 0 15474349.822 -293211.819 20304723.283 10 0 59557 80100.00000 0 13475674.216 1344986.514 21642923.042 10 0 59557 81000.00000 0 11504774.157 3223782.132 22561920.617 10 0 59557 81900.00000 0 9620655.751 5307289.242 23043903.597 10 0 59557 82800.00000 0 7875604.379 7549209.298 23079495.860 10 0 59557 83700.00000 0 6313145.383 9894538.958 22667940.236 10 0 59557 84600.00000 0 4966384.728 12281652.446 21817118.268 10 0 59557 85500.00000 0 3856797.821 14644673.599 20543406.295 10 0 59558 0.00000 0 2993516.283 16916040.676 18871370.035 10 0 59558 900.00000 0 2373141.605 19029160.042 16833301.486 10 0 59558 1800.00000 0 1980094.537 20921036.434 14468608.115 10 0 59558 2700.00000 0 1787484.102 22534775.077 11823061.760 10 0 59558 3600.00000 0 1758461.265 23821848.439 8947922.621 10 0 59558 4500.00000 0 1848000.107 24744033.889 5898953.381 10 0 59558 5400.00000 0 2005031.697 25274940.349 2735341.950 10 0 59558 6300.00000 0 2174840.532 25401059.003 -481446.733 10 0 59558 7200.00000 0 2301621.893 25122292.845 -3688867.406 10 0 59558 8100.00000 0 2331091.173 24451941.719 -6824516.053 10 0 59558 9000.00000 0 2213033.597 23416142.473 -9827351.909 10 0 59558 9900.00000 0 1903684.961 22052787.034 -12638895.000 10 0 59558 10800.00000 0 1367840.928 20409963.462 -15204374.955 10 0 59558 11700.00000 0 580603.823 18543985.408 -17473807.628 10 0 59558 12600.00000 0 -471308.711 16517093.021 -19402977.550 10 0 59558 13500.00000 0 -1788750.219 14394922.240 -20954306.388 10 0 59558 14400.00000 0 -3359862.981 12243849.210 -22097589.950 10 0 59558 15300.00000 0 -5160339.823 10128321.717 -22810589.088 10 0 59558 16200.00000 0 -7154220.234 8108289.827 -23079462.978 10 0 59558 17100.00000 0 -9295188.225 6236843.446 -22899036.486 10 0 59558 18000.00000 0 -11528317.945 4558155.546 -22272896.682 10 0 59558 18900.00000 0 -13792194.254 3105816.554 -21213317.031 10 0 59558 19800.00000 0 -16021319.656 1901628.656 -19741011.124 10 0 59558 20700.00000 0 -18148706.774 954909.231 -17884721.242 10 0 59558 21600.00000 0 -20108547.957 262330.929 -15680650.197 10 0 59558 22500.00000 0 -21838850.302 -191696.790 -13171747.983 10 0 59558 23400.00000 0 -23283925.857 -434122.669 -10406867.675 10 0 59558 24300.00000 0 -24396633.033 -501865.354 -7439807.509 10 0 59558 25200.00000 0 -25140275.779 -440002.225 -4328258.336 10 0 59558 26100.00000 0 -25490081.569 -299613.440 -1132677.513 10 0 59558 27000.00000 0 -25434197.135 -135373.686 2084888.353 10 0 59558 27900.00000 0 -24974161.202 -2994.453 5262008.578 10 0 59558 28800.00000 0 -24124835.493 43374.394 8337077.757 10 0 59558 29700.00000 0 -22913798.008 -46326.420 11250505.819 10 0 59558 30600.00000 0 -21380224.872 -315712.928 13945866.028 10 0 59558 31500.00000 0 -19573308.308 -799880.682 16370979.072 10 0 59558 32400.00000 0 -17550277.187 -1523690.260 18478913.144 10 0 59558 33300.00000 0 -15374102.799 -2500487.487 20228881.660 10 0 59558 34200.00000 0 -13110985.091 -3731312.147 21587022.324 10 0 59558 35100.00000 0 -10827723.268 -5204628.687 22527043.699 10 0 59558 36000.00000 0 -8589078.993 -6896590.912 23030727.806 10 0 59558 36900.00000 0 -6455240.541 -8771830.658 23088279.824 10 0 59558 37800.00000 0 -4479491.828 -10784738.992 22698518.641 10 0 59558 38700.00000 0 -2706181.772 -12881188.290 21868904.618 10 0 59558 39600.00000 0 -1169077.243 -15000625.254 20615403.670 10 0 59558 40500.00000 0 109832.890 -17078449.586 18962189.533 10 0 59558 41400.00000 0 1121033.502 -19048580.950 16941188.843 10 0 59558 42300.00000 0 1867650.017 -20846108.523 14591476.545 10 0 59558 43200.00000 0 2365079.486 -22409913.574 11958531.928 10 0 59558 44100.00000 0 2640101.320 -23685155.965 9093368.301 10 0 59558 45000.00000 0 2729504.818 -24625520.407 6051552.135 10 0 59558 45900.00000 0 2678291.185 -25195127.872 2892129.836 10 0 59558 46800.00000 0 2537525.848 -25370030.960 -323517.468 10 0 59558 47700.00000 0 2361932.045 -25139229.204 -3532868.804 10 0 59558 48600.00000 0 2207328.026 -24505160.272 -6673484.304 10 0 59558 49500.00000 0 2128017.278 -23483645.084 -9684227.799 10 0 59558 50400.00000 0 2174243.462 -22103287.987 -12506466.185 10 0 59558 51300.00000 0 2389819.318 -20404356.376 -15085221.206 10 0 59558 52200.00000 0 2810031.560 -18437186.263 -17370250.173 10 0 59558 53100.00000 0 3459912.039 -16260180.649 -19317033.519 10 0 59558 54000.00000 0 4352949.883 -13937484.725 -20887649.262 10 0 59558 54900.00000 0 5490300.512 -11536435.694 -22051516.807 10 0 59558 55800.00000 0 6860526.131 -9124894.434 -22785995.284 10 0 59558 56700.00000 0 8439879.696 -6768570.975 -23076824.757 10 0 59558 57600.00000 0 10193121.222 -4528455.796 -22918401.851 10 0 59558 58500.00000 0 12074832.607 -2458464.264 -22313884.695 10 0 59558 59400.00000 0 14031176.114 -603392.206 -21275125.539 10 0 59558 60300.00000 0 16002022.871 1002732.798 -19822432.755 10 0 59558 61200.00000 0 17923362.024 2337836.576 -17984167.313 10 0 59558 62100.00000 0 19729889.486 3392471.991 -15796182.062 10 0 59558 63000.00000 0 21357667.623 4169954.675 -13301115.169 10 0 59558 63900.00000 0 22746744.203 4685957.199 -10547552.055 10 0 59558 64800.00000 0 23843620.848 4967580.938 -7589072.615 10 0 59558 65700.00000 0 24603467.598 5051946.810 -4483202.823 10 0 59558 66600.00000 0 24991990.973 4984366.245 -1290291.738 10 0 59558 67500.00000 0 24986877.746 4816171.274 1927663.803 10 0 59558 68400.00000 0 24578754.491 4602296.755 5108223.527 10 0 59558 69300.00000 0 23771623.507 4398717.810 8189713.436 10 0 59558 70200.00000 0 22582757.642 4259851.341 11112417.373 10 0 59558 71100.00000 0 21042059.188 4236031.564 13819727.611 10 0 59558 72000.00000 0 19190910.250 4371165.984 16259232.590 10 0 59558 72900.00000 0 17080562.963 4700670.381 18383721.571 10 0 59558 73800.00000 0 14770136.642 5249769.399 20152087.771 10 0 59558 74700.00000 0 12324304.997 6032233.948 21530113.572 10 0 59558 75600.00000 0 9810768.821 7049608.380 22491123.846 10 0 59558 76500.00000 0 7297618.082 8290960.157 23016495.784 10 0 59558 77400.00000 0 4850691.659 9733163.115 23096016.213 10 0 59558 78300.00000 0 2531042.760 11341703.624 22728079.996 10 0 59558 79200.00000 0 392613.696 13071977.368 21919725.779 10 0 59558 80100.00000 0 -1519784.822 14871024.286 20686508.055 10 0 59558 81000.00000 0 -3172107.131 16679631.067 19052207.285 10 0 59558 81900.00000 0 -4542251.799 18434715.178 17048382.567 10 0 59558 82800.00000 0 -5620737.939 20071892.323 14713774.221 10 0 59558 83700.00000 0 -6410850.786 21528121.184 12093566.431 10 0 59558 84600.00000 0 -6928250.516 22744315.425 9238522.842 10 0 59558 85500.00000 0 -7200060.589 23667813.615 6204010.764 10 0 59559 0.00000 0 -7263473.874 24254603.041 3048932.341 10 0 59559 900.00000 0 -7163935.241 24471203.333 -165418.773 10 0 59559 1800.00000 0 -6952977.367 24296128.774 -3376548.689 10 0 59559 2700.00000 0 -6685801.783 23720867.286 -6521984.676 10 0 59559 3600.00000 0 -6418708.064 22750332.488 -9540497.987 10 0 59559 4500.00000 0 -6206481.043 21402768.665 -12373304.988 10 0 59559 5400.00000 0 -6099847.935 19709111.341 -14965221.861 10 0 59559 6300.00000 0 -6143114.460 17711829.290 -17265749.388 10 0 59559 7200.00000 0 -6372081.473 15463296.067 -19230065.603 10 0 59559 8100.00000 0 -6812331.699 13023759.064 -20819906.272 10 0 59559 9000.00000 0 -7477960.313 10458991.129 -22004315.498 10 0 59559 9900.00000 0 -8370804.115 7837723.311 -22760251.493 10 0 59559 10800.00000 0 -9480202.727 5228966.237 -23073035.711 10 0 59559 11700.00000 0 -10783302.586 2699332.182 -22936636.703 10 0 59559 12600.00000 0 -12245891.331 310469.693 -22353783.458 10 0 59559 13500.00000 0 -13823727.702 -1883282.486 -21335906.405 10 0 59559 14400.00000 0 -15464311.110 -3836924.899 -19902907.657 10 0 59559 15300.00000 0 -17109016.316 -5516426.484 -18082765.401 10 0 59559 16200.00000 0 -18695503.366 -6899886.608 -15910980.650 10 0 59559 17100.00000 0 -20160301.278 -7978183.180 -13429877.536 10 0 59559 18000.00000 0 -21441456.661 -8755081.584 -10687771.334 10 0 59559 18900.00000 0 -22481135.798 -9246802.096 -7738020.909 10 0 59559 19800.00000 0 -23228070.807 -9481066.147 -4637984.544 10 0 59559 20700.00000 0 -23639747.128 -9495663.693 -1447900.088 10 0 59559 21600.00000 0 -23684240.701 -9336604.031 1770288.322 10 0 59559 22500.00000 0 -23341628.021 -9055929.692 4954133.773 10 0 59559 23400.00000 0 -22604910.438 -8709286.947 8041896.594 10 0 59559 24300.00000 0 -21480414.476 -8353356.316 10973737.385 10 0 59559 25200.00000 0 -19987651.945 -8043251.975 13692870.142 10 0 59559 26100.00000 0 -18158646.160 -7829999.792 16146653.569 10 0 59559 27000.00000 0 -16036752.624 -7758200.040 18287600.225 10 0 59559 27900.00000 0 -13675023.286 -7863972.766 20074285.011 10 0 59559 28800.00000 0 -11134182.123 -8173271.737 21472136.471 10 0 59559 29700.00000 0 -8480295.470 -8700637.411 22454096.817 10 0 59559 30600.00000 0 -5782232.695 -9448441.112 23001139.004 10 0 59559 31500.00000 0 -3109021.283 -10406652.279 23102631.655 10 0 59559 32400.00000 0 -527204.434 -11553139.147 22756545.347 10 0 59559 33300.00000 0 1901690.953 -12854491.299 21969496.381 10 0 59559 34200.00000 0 4123472.319 -14267331.005 20756626.865 10 0 59559 35100.00000 0 6093290.751 -15740060.110 19141322.716 10 0 59559 36000.00000 0 7777259.147 -17214971.042 17154773.933 10 0 59559 36900.00000 0 9153612.601 -18630635.137 14835384.357 10 0 59559 37800.00000 0 10213363.126 -19924469.506 12228040.943 10 0 59559 38700.00000 0 10960421.534 -21035375.744 9383255.278 10 0 59559 39600.00000 0 11411181.269 -21906340.040 6356192.886 10 0 59559 40500.00000 0 11593581.610 -22486885.274 3205608.270 10 0 59559 41400.00000 0 11545689.511 -22735271.237 -7294.167 10 0 59559 42300.00000 0 11313859.876 -22620349.167 -3220051.127 10 0 59559 43200.00000 0 10950552.171 -22122990.973 -6370159.922 10 0 59559 44100.00000 0 10511896.171 -21237031.215 -9396302.045 10 0 59559 45000.00000 0 10055110.597 -19969680.416 -12239545.998 10 0 59559 45900.00000 0 9635884.929 -18341390.705 -14844504.897 10 0 59559 46800.00000 0 9305836.414 -16385178.020 -17160425.262 10 0 59559 47700.00000 0 9110151.210 -14145428.333 -19142184.726 10 0 59559 48600.00000 0 9085510.681 -11676237.279 -20751178.486 10 0 59559 49500.00000 0 9258391.717 -9039352.358 -21956076.668 10 0 59559 50400.00000 0 9643813.858 -6301803.756 -22733437.505 10 0 59559 51300.00000 0 10244586.832 -3533322.841 -23068164.377 10 0 59559 52200.00000 0 11051090.791 -803656.176 -22953797.905 10 0 59559 53100.00000 0 12041598.729 1820112.799 -22392637.705 10 0 59559 54000.00000 0 13183127.545 4276122.925 -21395691.814 10 0 59559 54900.00000 0 14432781.756 6510069.051 -19982455.187 10 0 59559 55800.00000 0 15739532.985 8477213.678 -18180522.029 10 0 59559 56700.00000 0 17046359.933 10143993.705 -16025040.010 10 0 59559 57600.00000 0 18292658.324 11489156.620 -13558017.394 10 0 59559 58500.00000 0 19416818.955 12504380.328 -10827497.158 10 0 59559 59400.00000 0 20358864.919 13194352.694 -7886614.668 10 0 59559 60300.00000 0 21063036.751 13576309.637 -4792557.769 10 0 59559 61200.00000 0 21480216.488 13679053.340 -1605450.135 10 0 59559 62100.00000 0 21570088.650 13541493.957 1612819.902 10 0 59559 63000.00000 0 21302947.398 13210778.129 4799801.923 10 0 59559 63900.00000 0 20661074.170 12740084.652 7893693.645 10 0 59559 64800.00000 0 19639628.311 12186181.402 10834535.327 10 0 59559 65700.00000 0 18247013.643 11606847.155 13565365.369 10 0 59559 66600.00000 0 16504705.965 11058267.227 16033315.157 10 0 59559 67500.00000 0 14446548.729 10592512.430 18190622.688 10 0 59559 68400.00000 0 12117546.158 10255207.034 19995546.404 10 0 59559 69300.00000 0 9572203.637 10083483.116 21413162.564 10 0 59559 70200.00000 0 6872483.622 10104306.561 22416031.983 10 0 59559 71100.00000 0 4085460.762 10333244.439 22984724.302 10 0 59559 72000.00000 0 1280772.212 10773725.127 23108190.502 10 0 59559 72900.00000 0 -1472032.841 11416822.255 22783977.033 10 0 59559 73800.00000 0 -4106136.319 12241572.017 22018277.559 10 0 59559 74700.00000 0 -6559979.085 13215811.408 20825821.039 10 0 59559 75600.00000 0 -8779570.182 14297503.508 19229597.600 10 0 59559 76500.00000 0 -10720482.866 15436495.686 17260426.435 10 0 59559 77400.00000 0 -12349455.252 16576638.459 14956372.801 10 0 59559 78300.00000 0 -13645529.537 17658177.426 12362023.980 10 0 59559 79200.00000 0 -14600682.447 18620318.836 9527636.810 10 0 59559 80100.00000 0 -15219920.497 19403861.488 6508172.175 10 0 59559 81000.00000 0 -15520835.886 19953784.261 3362234.269 10 0 59559 81900.00000 0 -15532641.489 20221679.775 150934.695 10 0 59559 82800.00000 0 -15294725.396 20167930.568 -3063296.548 10 0 59559 83700.00000 0 -14854785.994 19763534.579 -6217929.743 10 0 59559 84600.00000 0 -14266626.639 18991501.184 -9251559.455 10 0 59559 85500.00000 0 -13587703.632 17847757.065 -12105108.997 10 0 59560 0.00000 0 -12876532.131 16341522.019 -14722990.645 10 0 59560 900.00000 0 -12190060.270 14495136.267 -17054199.322 10 0 59560 1800.00000 0 -11581124.668 12343347.265 -19053313.905 10 0 59560 2700.00000 0 -11096094.715 9932082.086 -20681390.591 10 0 59560 3600.00000 0 -10772807.166 7316758.044 -21906726.769 10 0 59560 4500.00000 0 -10638878.726 4560201.107 -22705481.611 10 0 59560 5400.00000 0 -10710468.508 1730259.025 -23062141.001 10 0 59560 6300.00000 0 -10991542.882 -1102791.262 -22969817.870 10 0 59560 7200.00000 0 -11473673.761 -3868933.732 -22430382.338 10 0 59560 8100.00000 0 -12136378.603 -6501088.853 -21454419.544 10 0 59560 9000.00000 0 -12947987.437 -8937663.452 -20061016.382 10 0 59560 9900.00000 0 -13866999.761 -11124868.949 -18277381.781 10 0 59560 10800.00000 0 -14843873.510 -13018712.216 -16138308.403 10 0 59560 11700.00000 0 -15823170.022 -14586577.068 -13685486.657 10 0 59560 12600.00000 0 -16745963.865 -15808331.734 -10966684.979 10 0 59560 13500.00000 0 -17552415.353 -16676917.784 -8034812.784 10 0 59560 14400.00000 0 -18184396.770 -17198397.765 -4946884.874 10 0 59560 15300.00000 0 -18588061.191 -17391461.635 -1762908.047 10 0 59560 16200.00000 0 -18716245.429 -17286414.784 1455287.943 10 0 59560 17100.00000 0 -18530605.787 -16923692.175 4645251.989 10 0 59560 18000.00000 0 -18003396.795 -16351962.787 7745122.047 10 0 59560 18900.00000 0 -17118818.288 -15625905.526 10694820.858 10 0 59560 19800.00000 0 -15873874.440 -14803751.165 13437213.993 10 0 59560 20700.00000 0 -14278708.887 -13944694.216 15919208.137 10 0 59560 21600.00000 0 -12356401.921 -13106283.643 18092769.138 10 0 59560 22500.00000 0 -10142237.978 -12341901.725 19915841.090 10 0 59560 23400.00000 0 -7682473.500 -11698436.276 21353149.736 10 0 59560 24300.00000 0 -5032655.616 -11214243.094 22376875.861 10 0 59560 25200.00000 0 -2255560.309 -10917483.228 22967186.748 10 0 59560 26100.00000 0 581165.737 -10824904.031 23112616.276 10 0 59560 27000.00000 0 3407563.541 -10941114.622 22810286.904 10 0 59560 27900.00000 0 6154016.266 -11258386.023 22065969.427 10 0 59560 28800.00000 0 8753891.366 -11756984.672 20893979.064 10 0 59560 29700.00000 0 11146062.557 -12406026.036 19316909.236 10 0 59560 30600.00000 0 13277208.354 -13164813.569 17365207.079 10 0 59560 31500.00000 0 15103792.554 -13984607.984 15076597.677 10 0 59560 32400.00000 0 16593644.973 -14810753.745 12495366.694 10 0 59560 33300.00000 0 17727076.747 -15585074.378 9671513.920 10 0 59560 34200.00000 0 18497483.503 -16248436.465 6659792.950 10 0 59560 35100.00000 0 18911410.915 -16743374.541 3518654.718 10 0 59560 36000.00000 0 18988079.530 -17016665.915 309114.839 10 0 59560 36900.00000 0 18758388.479 -17021745.927 -2906433.292 10 0 59560 37800.00000 0 18263439.858 -16720860.423 -6065436.253 10 0 59560 38700.00000 0 17552646.045 -16086862.833 -9106404.909 10 0 59560 39600.00000 0 16681500.120 -15104578.150 -11970120.430 10 0 59560 40500.00000 0 15709104.144 -13771674.243 -14600797.497 10 0 59560 41400.00000 0 14695560.523 -12099001.818 -16947180.994 10 0 59560 42300.00000 0 13699337.591 -10110387.045 -18963553.700 10 0 59560 43200.00000 0 12774721.676 -7841884.039 -20610634.614 10 0 59560 44100.00000 0 11969464.087 -5340517.466 -21856349.803 10 0 59560 45000.00000 0 11322723.089 -2662567.175 -22676460.371 10 0 59560 45900.00000 0 10863388.110 128533.873 -23055035.291 10 0 59560 46800.00000 0 10608857.013 2964600.845 -22984759.962 10 0 59560 47700.00000 0 10564317.831 5775297.319 -22467074.770 10 0 59560 48600.00000 0 10722564.824 8490826.255 -21512141.341 10 0 59560 49500.00000 0 11064355.911 11044599.712 -20138637.554 10 0 59560 50400.00000 0 11559295.583 13375776.235 -18373385.779 10 0 59560 51300.00000 0 12167205.119 15431560.709 -16250822.070 10 0 59560 52200.00000 0 12839921.296 17169171.566 -13812317.082 10 0 59560 53100.00000 0 13523446.738 18557394.220 -11105362.492 10 0 59560 54000.00000 0 14160360.259 19577657.290 -8182639.256 10 0 59560 54900.00000 0 14692384.664 20224588.182 -5100986.367 10 0 59560 55800.00000 0 15063002.997 20506026.594 -1920290.773 10 0 59560 56700.00000 0 15220012.372 20442497.330 1297679.463 10 0 59560 57600.00000 0 15117907.380 20066166.457 4490475.681 10 0 59560 58500.00000 0 14719992.495 19419326.408 7596179.145 10 0 59560 59400.00000 0 14000134.531 18552475.196 10554598.007 10 0 59560 60300.00000 0 12944081.524 17522071.588 13308427.706 10 0 59560 61200.00000 0 11550292.708 16388061.241 15804352.676 10 0 59560 62100.00000 0 9830244.775 15211277.938 17994068.776 10 0 59560 63000.00000 0 7808201.298 14050828.754 19835207.637 10 0 59560 63900.00000 0 5520454.508 12961572.237 21292146.073 10 0 59560 64800.00000 0 3014070.166 11991794.371 22336686.120 10 0 59560 65700.00000 0 345186.546 11181178.646 22948593.658 10 0 59560 66600.00000 0 -2423063.186 10559154.171 23115986.055 10 0 59560 67500.00000 0 -5222920.741 10143690.094 22835561.981 10 0 59560 68400.00000 0 -7984568.226 9940586.177 22112669.118 10 0 59560 69300.00000 0 -10638784.806 9943289.019 20961208.239 10 0 59560 70200.00000 0 -13119586.151 10133241.770 19403374.858 10 0 59560 71100.00000 0 -15366738.608 10480753.209 17469242.392 10 0 59560 72000.00000 0 -17328044.732 10946350.523 15196193.650 10 0 59560 72900.00000 0 -18961305.805 11482559.886 12628210.233 10 0 59560 73800.00000 0 -20235879.927 12036040.848 9815032.149 10 0 59560 74700.00000 0 -21133770.407 12549985.339 6811202.803 10 0 59560 75600.00000 0 -21650198.662 12966680.516 3675016.880 10 0 59560 76500.00000 0 -21793637.024 13230127.179 467390.986 10 0 59560 77400.00000 0 -21585299.509 13288602.564 -2749321.076 10 0 59560 78300.00000 0 -21058111.524 13097058.144 -5912545.114 10 0 59560 79200.00000 0 -20255201.607 12619249.532 -8960711.135 10 0 59560 80100.00000 0 -19227978.835 11829506.703 -11834460.874 10 0 59560 81000.00000 0 -18033877.259 10714067.741 -14477813.721 10 0 59560 81900.00000 0 -16733863.112 9271917.769 -16839267.265 10 0 59560 82800.00000 0 -15389810.726 7515095.835 -18872809.915 10 0 59560 83700.00000 0 -14061858.663 5468455.077 -20538825.089 10 0 59560 84600.00000 0 -12805858.332 3168884.820 -21804868.762 10 0 59560 85500.00000 0 -11671023.296 664026.181 -22646304.804 99